[[{"header":{"parameterUnit":"m.s-1","parameterCategory":1,"la1":30.2991,"la2":30.254,"lo1":-89.0895,"lo2":-89.0444,"dy":0.0017,"dx":0.0017,"nx":28,"ny":28,"refTime":"2025-04-06T03:00:00:Z","depth":0,"parameterNumber":2,"parameterNumberName":"U-component_of_WINDS"},"data":[0,0,0,0,0,0,0,0,0,0,0,0,0,0,0,0,0,0,0,0,0,0,0,0,0,0,0,0,0,0,0,0,0,0,0,0,0,0,0,0,0,0,0,0,0,0,0,0,0,0,0,0,0,0,0,0,0,0,2.993,2.9929,0,2.9788,2.9786,2.9784,2.9643,2.9641,2.964,2.9638,2.9483,2.948,2.9478,0,0,0,0,0,0,0,0,0,0,0,0,0,3.0073,3.0071,2.9931,2.9929,2.9927,2.9788,2.9786,2.9784,2.9644,2.9641,2.9639,2.9637,2.9483,2.948,2.9478,0,0,0,0,0,0,0,0,0,0,0,0,0,2.9979,3.0071,2.9931,2.984,2.9831,2.9788,2.9786,2.9783,2.9644,2.9641,2.9639,2.9636,2.9484,2.9481,2.9477,2.9509,0,0,2.9466,2.9464,0,0,0,0,0,0,0,0,2.9984,2.9974,2.9855,2.9847,2.9836,2.9731,2.9779,2.9691,2.9645,2.9715,2.9638,2.9635,2.9567,2.9556,2.9535,2.9502,2.9495,2.9466,2.9463,2.9462,2.9461,0,0,0,0,0,0,0,2.9991,2.9979,2.9874,2.9854,2.9842,2.9804,2.9788,2.9762,2.9657,2.9708,2.9698,2.9683,2.9561,2.9539,2.953,2.9493,2.9466,2.9462,2.946,2.9459,2.9478,2.9481,0,0,0,0,0,0,3.0013,2.9985,2.9878,2.9869,2.9905,2.9804,2.9785,2.9767,2.9657,2.9638,2.9686,2.9677,2.9546,2.9535,2.9524,2.9555,2.9462,2.9458,2.9456,2.9475,2.9479,2.9482,0,0,0,0,0,0,3.0016,3.0004,2.9884,2.9925,2.9906,2.9804,2.9785,2.9766,2.9744,2.9641,2.962,2.9683,2.9544,2.9529,2.9515,2.9547,2.9457,2.9453,2.9472,2.9476,2.948,2.9616,0,0,0,0,0,0,3.0021,3.0007,3.002,2.9926,2.9905,2.988,2.9787,2.9765,2.9739,2.9726,2.9633,2.9615,2.9541,2.9521,2.9511,2.9541,2.9451,2.9469,2.9474,2.9479,2.9608,2.9624,2.9638,0,0,0,0,0,3.0027,3.0062,3.0022,3.0009,2.992,2.9882,2.987,2.9786,2.9742,2.9753,2.9687,2.9618,2.9545,2.9521,2.9508,2.9537,2.9466,2.9473,2.9478,2.9602,2.9621,2.9638,0,0,0,0,0,0,3.016,3.0048,3.0002,3.0009,2.9957,2.9859,2.987,2.981,2.9767,2.9756,2.9652,2.9632,2.9629,2.9581,2.9555,2.9562,2.9496,2.95,2.9594,2.9612,2.9626,2.9638,2.9448,0,0,0,0,0,3.0191,3.0172,3.0074,3.0089,3.0066,2.9973,2.9954,2.9894,2.9834,2.9811,2.9743,2.9685,2.9649,2.9627,2.9588,2.96,2.9577,2.9614,2.9629,2.9642,2.9646,2.9648,2.9663,2.9502,2.9501,2.9501,0,0,3.0253,3.0189,3.0184,3.0115,3.0067,3.0048,2.9955,2.9939,2.9922,2.9807,2.979,2.9738,2.9666,2.9665,2.9661,2.9625,2.9686,2.965,2.9661,2.9658,2.9656,2.9671,2.9685,2.9506,2.9505,2.9504,0,0,3.0356,3.0307,3.0315,3.027,3.02,3.0138,3.014,3.0051,3.0014,2.9995,2.9908,2.9885,2.9826,2.9779,2.9747,2.9833,2.9767,2.9822,2.99,2.9903,2.9916,2.9927,2.9957,2.9969,2.9827,2.9828,2.9828,0,3.0442,3.0412,3.0325,3.0315,3.0286,3.0184,3.0189,3.0148,3.0069,3.005,3.0012,2.9935,2.9879,2.9865,2.9887,2.9864,2.9861,2.9833,2.9922,2.9932,2.994,2.9968,2.998,2.9835,2.9834,2.9833,2.9833,0,3.052,3.0501,3.0515,3.0444,3.0417,3.0414,3.0325,3.0307,3.025,3.0191,3.0173,3.0102,3.0048,3.004,2.9982,3.0017,2.9997,2.9942,2.9873,2.9965,2.9989,2.9998,2.9845,2.9843,2.984,2.9839,0,0,3.0704,3.0586,3.0593,3.0559,3.0475,3.0456,3.0448,3.0397,3.0384,3.0332,3.0321,3.0273,3.0222,3.0186,3.0121,3.0124,3.0196,3.0068,3.0064,3.0094,3.0229,3.0272,3.0286,3.0152,3.0154,3.0155,3.0235,0,3.0794,3.0777,3.0698,3.0703,3.0683,3.0585,3.0577,3.0523,3.0468,3.044,3.0377,3.0345,3.028,3.0257,3.0256,3.0188,3.0222,3.0181,3.0138,3.0138,3.0161,3.0298,3.0343,3.0423,3.0244,3.0246,3.0247,0,3.0896,3.0854,3.0858,3.0774,3.0762,3.0758,3.0705,3.0681,3.0616,3.0575,3.0536,3.0465,3.0447,3.0384,3.0357,3.0332,3.0309,3.0273,3.0274,3.0267,3.0199,3.0295,3.0446,3.0458,3.0261,3.0259,3.0258,0,3.103,3.0974,3.0969,3.0943,3.0845,3.0844,3.0802,3.0735,3.071,3.0662,3.0644,3.0594,3.0566,3.0528,3.0444,3.0406,3.0427,3.0356,3.039,3.0393,3.0399,3.04,3.0549,3.0385,3.0385,3.0385,3.0385,0,3.1138,3.1144,3.1028,3.1025,3.1028,3.0936,3.0941,3.0889,3.0831,3.0814,3.0724,3.0709,3.06,3.0572,3.0506,3.0493,3.0481,3.0446,3.0428,3.0454,3.0459,3.0438,3.0431,3.0388,3.0387,3.0387,3.0386,0,3.1289,3.1211,3.12,3.1108,3.1085,3.1092,3.1012,3.1004,3.0943,3.0923,3.0912,3.0816,3.0778,3.0691,3.0629,3.0584,3.0589,3.0556,3.0612,3.0601,3.064,3.0638,3.0781,3.0795,3.0623,3.0625,3.0626,0,3.1364,3.1366,3.1276,3.126,3.1223,3.1198,3.1172,3.1081,3.1058,3.0984,3.0985,3.094,3.09,3.0844,3.0766,3.0718,3.0684,3.0737,3.0676,3.0702,3.0684,3.0686,3.0685,3.0751,3.0754,3.0755,3.0757,0,3.1504,3.1466,3.1434,3.1389,3.1362,3.1321,3.1275,3.1266,3.1162,3.114,3.1102,3.1072,3.1009,3.0966,3.0906,3.0858,3.079,3.0777,3.0782,3.0809,3.0841,3.0825,3.065,3.0774,3.0772,3.0771,3.077,3.077,3.1619,3.1617,3.1554,3.1521,3.1477,3.1436,3.1425,3.1364,3.1332,3.1277,3.1223,3.1191,3.1123,3.1036,3.0994,3.0965,3.093,3.0938,3.094,3.0943,3.0955,3.0847,3.0953,3.0952,3.0952,3.0951,3.0951,0,3.1755,3.171,3.1681,3.1621,3.1595,3.1535,3.1481,3.1462,3.1436,3.1381,3.1344,3.13,3.1257,3.1177,3.1126,3.1118,3.1085,3.1108,3.1107,3.1098,3.0988,3.0989,3.1135,3.1135,3.1135,3.1135,3.1135,3.1135,3.1823,3.1817,3.1771,3.1741,3.1694,3.1665,3.1639,3.1599,3.1555,3.1511,3.1477,3.1426,3.1359,3.1303,3.1261,3.1238,3.1223,3.1256,3.1223,3.1123,3.1105,3.1089,3.1089,3.1253,3.1254,3.1334,3.1335,3.1336]},{"header":{"parameterUnit":"m.s-1","parameterCategory":1,"la1":30.2991,"la2":30.254,"lo1":-89.0895,"lo2":-89.0444,"dy":0.0017,"dx":0.0017,"nx":28,"ny":28,"refTime":"2025-04-06T03:00:00:Z","depth":0,"parameterNumber":3,"parameterNumberName":"V-component_of_WINDS"},"data":[0,0,0,0,0,0,0,0,0,0,0,0,0,0,0,0,0,0,0,0,0,0,0,0,0,0,0,0,0,0,0,0,0,0,0,0,0,0,0,0,0,0,0,0,0,0,0,0,0,0,0,0,0,0,0,0,0,0,-6.9058,-6.906,0,-6.9201,-6.9203,-6.9205,-6.9189,-6.9186,-6.9184,-6.9182,-6.9321,-6.9327,-6.9332,0,0,0,0,0,0,0,0,0,0,0,0,0,-6.8764,-6.8769,-6.9058,-6.906,-6.9062,-6.9201,-6.9203,-6.9205,-6.9189,-6.9186,-6.9184,-6.9181,-6.9319,-6.9326,-6.9333,0,0,0,0,0,0,0,0,0,0,0,0,0,-6.8897,-6.8771,-6.9058,-6.9071,-6.9073,-6.9201,-6.9203,-6.9206,-6.919,-6.9186,-6.9183,-6.918,-6.9317,-6.9325,-6.9334,-6.9455,0,0,-6.936,-6.9364,0,0,0,0,0,0,0,0,-6.889,-6.8908,-6.9067,-6.907,-6.9073,-6.9174,-6.915,-6.9289,-6.9191,-6.9145,-6.9182,-6.9178,-6.9274,-6.9286,-6.932,-6.9462,-6.9468,-6.9361,-6.9366,-6.937,-6.9373,0,0,0,0,0,0,0,-6.8881,-6.8902,-6.9114,-6.9069,-6.9073,-6.9067,-6.9082,-6.9176,-6.9227,-6.9149,-6.9148,-6.9166,-6.9275,-6.9312,-6.9323,-6.947,-6.9361,-6.9369,-6.9374,-6.9377,-6.9717,-6.9721,0,0,0,0,0,0,-6.8869,-6.8894,-6.911,-6.9119,-6.8972,-6.9075,-6.9092,-6.9145,-6.9226,-6.9235,-6.9168,-6.9164,-6.9299,-6.9313,-6.9328,-6.9475,-6.937,-6.9378,-6.9383,-6.9714,-6.9718,-6.9722,0,0,0,0,0,0,-6.8863,-6.8889,-6.9104,-6.9007,-6.9034,-6.9084,-6.9143,-6.9149,-6.9186,-6.9241,-6.9249,-6.9197,-6.9297,-6.9316,-6.9424,-6.948,-6.9382,-6.939,-6.9709,-6.9715,-6.972,-6.977,0,0,0,0,0,0,-6.8855,-6.8887,-6.8935,-6.9008,-6.9039,-6.92,-6.9147,-6.9155,-6.9202,-6.9198,-6.927,-6.9278,-6.9295,-6.9411,-6.9433,-6.949,-6.9397,-6.9704,-6.9712,-6.9718,-6.9764,-6.9777,-6.9788,0,0,0,0,0,-6.8844,-6.8941,-6.8937,-6.8963,-6.9101,-6.9203,-6.9221,-6.9241,-6.9207,-6.9255,-6.929,-6.9276,-6.9471,-6.9423,-6.9447,-6.9507,-6.9701,-6.971,-6.9718,-6.9758,-6.9774,-6.9788,0,0,0,0,0,0,-6.887,-6.8951,-6.8947,-6.9072,-6.9131,-6.92,-6.9261,-6.9257,-6.9325,-6.9319,-6.9338,-6.9355,-6.9464,-6.9496,-6.9441,-6.9629,-6.9581,-6.9595,-6.9603,-6.9619,-6.9631,-6.962,-6.9404,0,0,0,0,0,-6.8891,-6.897,-6.9036,-6.9139,-6.9169,-6.921,-6.9256,-6.9267,-6.9328,-6.9352,-6.9395,-6.9452,-6.9527,-6.9575,-6.9646,-6.9769,-6.9783,-6.9823,-6.9835,-6.9845,-6.9855,-6.9922,-6.994,-6.975,-6.975,-6.975,0,0,-6.8934,-6.8988,-6.9036,-6.9146,-6.9193,-6.9272,-6.9231,-6.9317,-6.9375,-6.9364,-6.9469,-6.9503,-6.9569,-6.9685,-6.9738,-6.9715,-6.9911,-6.9855,-6.9863,-6.9869,-6.9933,-6.9951,-6.9966,-6.9756,-6.9755,-6.9754,0,0,-6.9051,-6.9101,-6.9193,-6.9242,-6.9315,-6.9342,-6.9364,-6.9435,-6.9457,-6.9564,-6.9558,-6.9626,-6.9754,-6.9801,-6.9841,-6.9979,-6.9968,-7.0002,-7.0064,-7.0129,-7.0144,-7.0157,-7.0205,-7.0222,-7.0013,-7.0013,-7.0013,0,-6.9094,-6.9216,-6.9239,-6.9327,-6.9374,-6.9372,-6.9463,-6.9508,-6.96,-6.9632,-6.9606,-6.9767,-6.9811,-6.9938,-6.9971,-7.0005,-7.0029,-6.9992,-7.0141,-7.0154,-7.0167,-7.0212,-7.023,-7.0016,-7.0016,-7.0016,-7.0015,0,-6.9264,-6.9349,-6.9413,-6.9505,-6.956,-6.9649,-6.9684,-6.9737,-6.9743,-6.9772,-6.988,-6.9933,-7.0015,-7.0047,-7.0052,-7.0174,-7.0158,-7.0136,-7.0088,-7.0188,-7.0231,-7.0249,-7.0021,-7.002,-7.0019,-7.0018,0,0,-6.94,-6.9506,-6.9529,-6.9571,-6.9652,-6.9717,-6.9805,-6.9888,-6.9932,-6.9995,-7.0068,-7.0177,-7.0158,-7.0205,-7.0216,-7.0273,-7.0377,-7.0244,-7.0246,-7.0266,-7.0513,-7.0528,-7.0548,-7.0372,-7.0375,-7.0378,-7.0507,0,-6.9525,-6.9684,-6.9709,-6.9847,-6.9924,-6.9924,-7.0,-7.0057,-7.0087,-7.0155,-7.0187,-7.0264,-7.0233,-7.0261,-7.0318,-7.0353,-7.0427,-7.0344,-7.0437,-7.044,-7.0419,-7.057,-7.0586,-7.0705,-7.0524,-7.0527,-7.0529,0,-6.9692,-6.9763,-6.991,-6.9982,-7.0015,-7.0084,-7.0162,-7.0228,-7.0292,-7.0309,-7.0362,-7.0367,-7.0456,-7.0406,-7.0528,-7.0471,-7.0511,-7.0534,-7.0539,-7.0546,-7.0489,-7.058,-7.0744,-7.0761,-7.0556,-7.0554,-7.0552,0,-6.9775,-6.9907,-7.0012,-7.0048,-7.0135,-7.0183,-7.022,-7.0282,-7.033,-7.0398,-7.0429,-7.0505,-7.0546,-7.0604,-7.0628,-7.059,-7.0748,-7.0701,-7.0763,-7.0763,-7.0795,-7.0792,-7.0965,-7.0824,-7.0824,-7.0823,-7.0823,0,-6.991,-7.0,-7.0051,-7.0115,-7.0215,-7.0242,-7.0339,-7.0375,-7.043,-7.05,-7.0503,-7.0568,-7.0597,-7.0666,-7.0686,-7.0783,-7.0801,-7.0816,-7.082,-7.0815,-7.0813,-7.084,-7.0831,-7.0828,-7.0827,-7.0826,-7.0825,0,-7.0019,-7.0057,-7.0171,-7.0245,-7.0265,-7.0336,-7.0397,-7.0459,-7.0489,-7.0577,-7.0599,-7.0646,-7.0727,-7.0758,-7.0856,-7.0869,-7.0981,-7.0979,-7.096,-7.0961,-7.1021,-7.1014,-7.1216,-7.1243,-7.1086,-7.1087,-7.1088,0,-7.0102,-7.0171,-7.0253,-7.0302,-7.0342,-7.0419,-7.047,-7.0499,-7.055,-7.0629,-7.0681,-7.0763,-7.0829,-7.0959,-7.1,-7.1075,-7.1073,-7.1139,-7.1084,-7.1077,-7.1072,-7.1067,-7.1073,-7.1148,-7.115,-7.1151,-7.1152,0,-7.0245,-7.0261,-7.0335,-7.0416,-7.0477,-7.0541,-7.0603,-7.0642,-7.068,-7.0737,-7.0822,-7.0874,-7.0977,-7.1057,-7.1134,-7.117,-7.1167,-7.117,-7.1188,-7.1182,-7.1168,-7.1175,-7.0986,-7.1164,-7.1163,-7.1162,-7.1161,-7.1161,-7.0342,-7.0404,-7.0471,-7.0553,-7.0604,-7.0663,-7.0724,-7.0764,-7.0836,-7.0923,-7.0935,-7.1025,-7.1087,-7.1192,-7.1232,-7.1301,-7.1283,-7.131,-7.1316,-7.1322,-7.1325,-7.1159,-7.1315,-7.1315,-7.1315,-7.1315,-7.1314,0,-7.0484,-7.0528,-7.0604,-7.0692,-7.0757,-7.0752,-7.0821,-7.0874,-7.0954,-7.1014,-7.1081,-7.1178,-7.1256,-7.1304,-7.1383,-7.1429,-7.1429,-7.1448,-7.1444,-7.1452,-7.1338,-7.1313,-7.1447,-7.1447,-7.1447,-7.1446,-7.1446,-7.1446,-7.0565,-7.0669,-7.0693,-7.0821,-7.0864,-7.0955,-7.0995,-7.1048,-7.1096,-7.1205,-7.1272,-7.1304,-7.1358,-7.1441,-7.1512,-7.1524,-7.1551,-7.1572,-7.1582,-7.1474,-7.146,-7.1447,-7.1424,-7.1578,-7.1578,-7.169,-7.1691,-7.1692]}]]